Time,TemperatureF,DewpointF,PressureIn,WindDirection,WindDirectionDegrees,WindSpeedMPH,WindSpeedGustMPH,Humidity,HourlyPrecipIn,Conditions,Clouds,dailyrainin,SoftwareType,DateUTC
2013-10-26 00:00:00,52.0,46.0,-100.00,SSE,163,2.0,-999.0,82,0.00,,,-99.99,,2013-10-26 07:00:00,
2013-10-26 00:42:00,52.0,46.0,-100.00,SSE,163,2.0,-999.0,82,0.00,,,-99.99,,2013-10-26 07:42:00,
2013-10-26 00:52:00,52.0,46.0,-100.00,SSE,163,2.0,-999.0,82,0.00,,,-99.99,,2013-10-26 07:52:00,
2013-10-26 01:00:00,48.0,45.0,-100.00,South,175,4.0,-999.0,88,0.00,,,-99.99,,2013-10-26 08:00:00,
2013-10-26 01:42:00,48.0,45.0,-100.00,South,175,4.0,-999.0,88,0.00,,,-99.99,,2013-10-26 08:42:00,
2013-10-26 01:52:00,48.0,45.0,-100.00,South,175,4.0,-999.0,88,0.00,,,-99.99,,2013-10-26 08:52:00,
2013-10-26 02:00:00,48.0,45.0,-100.00,South,185,2.0,-999.0,89,0.00,,,-99.99,,2013-10-26 09:00:00,
2013-10-26 02:43:00,48.0,45.0,-100.00,South,185,2.0,-999.0,89,0.00,,,-99.99,,2013-10-26 09:43:00,
2013-10-26 02:53:00,48.0,45.0,-100.00,South,185,2.0,-999.0,89,0.00,,,-99.99,,2013-10-26 09:53:00,
2013-10-26 03:00:00,47.0,44.0,-100.00,SSE,150,1.0,-999.0,89,0.00,,,-99.99,,2013-10-26 10:00:00,
2013-10-26 03:42:00,47.0,44.0,-100.00,SSE,150,1.0,-999.0,89,0.00,,,-99.99,,2013-10-26 10:42:00,
2013-10-26 03:53:00,47.0,44.0,-100.00,SSE,150,1.0,-999.0,89,0.00,,,-99.99,,2013-10-26 10:53:00,
2013-10-26 04:00:00,45.0,43.0,-100.00,South,169,4.0,-999.0,92,0.00,,,-99.99,,2013-10-26 11:00:00,
2013-10-26 04:42:00,45.0,43.0,-100.00,South,169,4.0,-999.0,92,0.00,,,-99.99,,2013-10-26 11:42:00,
2013-10-26 04:52:00,45.0,43.0,-100.00,South,169,4.0,-999.0,92,0.00,,,-99.99,,2013-10-26 11:52:00,
2013-10-26 05:00:00,44.0,42.0,-100.00,SSE,168,4.0,-999.0,92,0.00,,,-99.99,,2013-10-26 12:00:00,
2013-10-26 05:42:00,44.0,42.0,-100.00,SSE,168,4.0,-999.0,92,0.00,,,-99.99,,2013-10-26 12:42:00,
2013-10-26 05:52:00,44.0,42.0,-100.00,SSE,168,4.0,-999.0,92,0.00,,,-99.99,,2013-10-26 12:52:00,
2013-10-26 06:00:00,43.0,41.0,-100.00,SSE,168,4.0,-999.0,93,0.00,,,-99.99,,2013-10-26 13:00:00,
2013-10-26 06:42:00,43.0,41.0,-100.00,SSE,168,4.0,-999.0,93,0.00,,,-99.99,,2013-10-26 13:42:00,
2013-10-26 06:52:00,43.0,41.0,-100.00,SSE,168,4.0,-999.0,93,0.00,,,-99.99,,2013-10-26 13:52:00,
2013-10-26 07:00:00,43.0,41.0,-100.00,South,170,3.0,-999.0,93,0.00,,,-99.99,,2013-10-26 14:00:00,
2013-10-26 07:42:00,43.0,41.0,-100.00,South,170,3.0,-999.0,93,0.00,,,-99.99,,2013-10-26 14:42:00,
2013-10-26 07:52:00,43.0,41.0,-100.00,South,170,3.0,-999.0,93,0.00,,,-99.99,,2013-10-26 14:52:00,
2013-10-26 08:00:00,42.0,40.0,-100.00,South,169,3.0,-999.0,94,0.00,,,-99.99,,2013-10-26 15:00:00,
2013-10-26 08:44:00,42.0,40.0,-100.00,South,169,3.0,-999.0,94,0.00,,,-99.99,,2013-10-26 15:44:00,
2013-10-26 08:55:00,42.0,40.0,-100.00,South,169,3.0,-999.0,94,0.00,,,-99.99,,2013-10-26 15:55:00,
2013-10-26 09:00:00,43.0,42.0,-100.00,SSE,160,4.0,-999.0,94,0.00,,,-99.99,,2013-10-26 16:00:00,
2013-10-26 09:44:00,43.0,42.0,-100.00,SSE,160,4.0,-999.0,94,0.00,,,-99.99,,2013-10-26 16:44:00,
2013-10-26 09:53:00,43.0,42.0,-100.00,SSE,160,4.0,-999.0,94,0.00,,,-99.99,,2013-10-26 16:53:00,
2013-10-26 10:00:00,48.0,42.0,-100.00,SSE,166,3.0,-999.0,79,0.00,,,-99.99,,2013-10-26 17:00:00,
2013-10-26 10:43:00,48.0,42.0,-100.00,SSE,166,3.0,-999.0,79,0.00,,,-99.99,,2013-10-26 17:43:00,
2013-10-26 10:52:00,48.0,42.0,-100.00,SSE,166,3.0,-999.0,79,0.00,,,-99.99,,2013-10-26 17:52:00,
2013-10-26 11:00:00,58.0,44.0,-100.00,South,173,4.0,-999.0,60,0.00,,,-99.99,,2013-10-26 18:00:00,
2013-10-26 11:42:00,58.0,44.0,-100.00,South,173,4.0,-999.0,60,0.00,,,-99.99,,2013-10-26 18:42:00,
2013-10-26 11:52:00,58.0,44.0,-100.00,South,173,4.0,-999.0,60,0.00,,,-99.99,,2013-10-26 18:52:00,
2013-10-26 12:00:00,69.0,44.0,-100.00,SE,143,0.0,-999.0,41,0.00,,,-99.99,,2013-10-26 19:00:00,
2013-10-26 12:42:00,69.0,44.0,-100.00,SE,143,0.0,-999.0,41,0.00,,,-99.99,,2013-10-26 19:42:00,
2013-10-26 12:52:00,69.0,44.0,-100.00,SE,143,0.0,-999.0,41,0.00,,,-99.99,,2013-10-26 19:52:00,
2013-10-26 13:00:00,71.0,42.0,-100.00,NNW,340,3.0,-999.0,35,0.00,,,-99.99,,2013-10-26 20:00:00,
2013-10-26 13:43:00,71.0,42.0,-100.00,NNW,340,3.0,-999.0,35,0.00,,,-99.99,,2013-10-26 20:43:00,
2013-10-26 13:52:00,71.0,42.0,-100.00,NNW,340,3.0,-999.0,35,0.00,,,-99.99,,2013-10-26 20:52:00,
2013-10-26 14:00:00,76.0,45.0,-100.00,NW,321,4.0,-999.0,33,0.00,,,-99.99,,2013-10-26 21:00:00,
2013-10-26 14:43:00,76.0,45.0,-100.00,NW,321,4.0,-999.0,33,0.00,,,-99.99,,2013-10-26 21:43:00,
2013-10-26 14:54:00,76.0,45.0,-100.00,NW,321,4.0,-999.0,33,0.00,,,-99.99,,2013-10-26 21:54:00,
2013-10-26 15:00:00,76.0,43.0,-100.00,NNW,332,5.0,-999.0,31,0.00,,,-99.99,,2013-10-26 22:00:00,
2013-10-26 15:54:00,76.0,43.0,-100.00,NNW,332,5.0,-999.0,31,0.00,,,-99.99,,2013-10-26 22:54:00,
2013-10-26 16:00:00,77.0,40.0,-100.00,NW,318,1.0,-999.0,26,0.00,,,-99.99,,2013-10-26 23:00:00,
2013-10-26 16:42:00,77.0,40.0,-100.00,NW,318,1.0,-999.0,26,0.00,,,-99.99,,2013-10-26 23:42:00,
2013-10-26 16:52:00,77.0,40.0,-100.00,NW,318,1.0,-999.0,26,0.00,,,-99.99,,2013-10-26 23:52:00,
2013-10-26 17:42:00,75.0,37.0,-100.00,NNW,337,3.0,-999.0,25,0.00,,,-99.99,,2013-10-27 00:42:00,
2013-10-26 18:42:00,71.0,-99.9,-100.00,NNW,336,1.0,-999.0,26,0.00,,,-99.99,,2013-10-27 01:42:00,
2013-10-26 19:00:00,65.0,37.0,-100.00,NNW,346,5.0,-999.0,35,0.00,,,-99.99,,2013-10-27 02:00:00,
2013-10-26 19:42:00,65.0,37.0,-100.00,NNW,346,5.0,-999.0,35,0.00,,,-99.99,,2013-10-27 02:42:00,
2013-10-26 19:52:00,65.0,37.0,-100.00,NNW,346,5.0,-999.0,35,0.00,,,-99.99,,2013-10-27 02:52:00,
2013-10-26 20:00:00,-999.0,-99.9,-100.00,North,1,2.0,-999.0,-999,-99.99,,,-99.99,,2013-10-27 03:00:00,
2013-10-26 20:45:00,62.0,38.0,-100.00,North,1,2.0,-999.0,42,0.00,,,-99.99,,2013-10-27 03:45:00,
2013-10-26 20:55:00,62.0,38.0,-100.00,North,1,2.0,-999.0,42,0.00,,,-99.99,,2013-10-27 03:55:00,
2013-10-26 21:00:00,59.0,36.0,-100.00,SE,141,3.0,-999.0,42,0.00,,,-99.99,,2013-10-27 04:00:00,
2013-10-26 21:54:00,59.0,36.0,-100.00,SE,141,3.0,-999.0,42,0.00,,,-99.99,,2013-10-27 04:54:00,
2013-10-26 22:00:00,56.0,37.0,-100.00,South,174,0.0,-999.0,49,0.00,,,-99.99,,2013-10-27 05:00:00,
2013-10-26 22:43:00,56.0,37.0,-100.00,South,174,0.0,-999.0,49,0.00,,,-99.99,,2013-10-27 05:43:00,
2013-10-26 22:52:00,56.0,37.0,-100.00,South,174,0.0,-999.0,49,0.00,,,-99.99,,2013-10-27 05:52:00,
2013-10-26 23:42:00,53.0,36.0,-100.00,South,190,2.0,-999.0,51,0.00,,,-99.99,,2013-10-27 06:42:00,